Precipitable_Water
1.30 1.37 1.27 1.18 1.13 1.08 0.93 0.81 0.80 0.81 0.84 0.82 0.76 0.68 0.65 0.63 0.59 0.54 0.49 0.47 0.47 0.47 0.44 0.43 0.42 0.43 0.44
1.14 1.19 1.27 1.19 1.15 1.05 1.01 0.86 0.77 0.80 0.83 0.81 0.77 0.70 0.65 0.63 0.59 0.55 0.48 0.47 0.46 0.46 0.43 0.41 0.40 0.41 0.43
1.07 1.21 1.26 1.25 1.16 1.12 1.01 0.93 0.83 0.83 0.83 0.82 0.80 0.73 0.68 0.63 0.59 0.54 0.48 0.46 0.45 0.43 0.40 0.39 0.38 0.39 0.40
1.10 1.10 1.16 1.24 1.18 1.06 1.01 0.99 0.86 0.84 0.82 0.79 0.79 0.75 0.72 0.68 0.62 0.59 0.53 0.47 0.44 0.41 0.39 0.36 0.35 0.36 0.38
1.02 1.07 1.11 1.12 1.08 1.08 1.01 1.00 0.99 0.89 0.81 0.78 0.76 0.74 0.73 0.72 0.67 0.63 0.58 0.53 0.47 0.42 0.40 0.37 0.35 0.36 0.36
1.06 1.02 1.04 1.09 1.14 1.09 1.02 0.95 0.94 1.05 0.85 0.73 0.76 0.71 0.73 0.71 0.68 0.65 0.61 0.58 0.53 0.47 0.43 0.40 0.38 0.38 0.36
1.01 1.02 1.06 1.12 1.11 1.10 1.06 1.01 0.99 1.01 0.90 0.75 0.71 0.65 0.71 0.70 0.70 0.67 0.64 0.60 0.58 0.53 0.49 0.45 0.42 0.40 0.37
0.92 1.07 1.13 1.16 1.19 1.15 1.10 1.07 1.08 1.03 0.99 0.80 0.70 0.61 0.67 0.69 0.72 0.70 0.68 0.63 0.60 0.58 0.53 0.50 0.47 0.42 0.40
0.92 1.03 1.16 1.19 1.23 1.20 1.10 1.04 0.92 0.92 0.97 0.87 0.76 0.60 0.62 0.63 0.69 0.69 0.68 0.64 0.62 0.59 0.58 0.55 0.51 0.47 0.43
0.92 1.04 1.16 1.22 1.24 1.22 1.16 1.04 1.02 0.90 0.94 0.80 0.76 0.64 0.51 0.59 0.63 0.68 0.67 0.66 0.63 0.61 0.60 0.58 0.54 0.49 0.45
0.92 1.08 1.10 1.14 1.18 1.23 1.20 1.15 1.06 0.96 0.96 0.83 0.70 0.66 0.59 0.50 0.55 0.62 0.64 0.63 0.62 0.62 0.60 0.59 0.56 0.50 0.46
0.90 0.96 0.99 1.04 1.10 1.18 1.22 1.21 1.20 1.09 1.02 0.91 0.69 0.64 0.59 0.48 0.46 0.56 0.59 0.62 0.62 0.59 0.59 0.59 0.57 0.53 0.50
0.80 0.91 0.98 1.05 1.12 1.17 1.20 1.20 1.18 1.13 1.06 1.00 0.78 0.67 0.63 0.51 0.48 0.49 0.51 0.55 0.59 0.57 0.56 0.56 0.53 0.52 0.48
0.78 0.87 1.03 1.06 1.08 1.13 1.09 1.09 1.08 1.04 1.08 1.03 0.85 0.71 0.60 0.58 0.54 0.52 0.55 0.49 0.54 0.55 0.56 0.56 0.55 0.53 0.52
0.78 0.83 0.96 1.02 1.05 1.08 1.10 1.07 1.02 1.01 0.98 0.96 0.85 0.74 0.66 0.61 0.53 0.53 0.53 0.53 0.54 0.54 0.53 0.50 0.52 0.52 0.52
0.78 0.80 0.93 0.97 1.00 1.01 1.05 1.01 1.01 1.01 0.98 0.94 0.82 0.65 0.58 0.57 0.59 0.52 0.52 0.52 0.53 0.53 0.53 0.47 0.45 0.50 0.52
0.76 0.80 0.91 0.97 0.97 0.98 1.00 1.03 1.01 1.01 0.98 0.97 0.82 0.70 0.48 0.39 0.49 0.56 0.49 0.51 0.50 0.48 0.49 0.47 0.43 0.46 0.49
Wind_Speed
41 42 44 44 44 42 41 40 39 38 36 34 31 28 25 23 21 18 15 13 12 11 10 11 12 14 16
42 42 46 46 45 43 42 41 40 40 38 36 34 31 28 25 23 20 17 15 14 12 11 12 12 14 15
46 45 44 46 47 44 44 42 42 41 40 38 36 33 30 27 25 22 20 18 16 14 13 13 13 14 15
49 48 47 47 49 47 45 44 42 42 41 40 38 36 32 29 27 24 22 20 18 16 14 14 14 14 15
52 49 49 48 51 50 47 44 43 43 41 41 40 38 35 32 29 26 24 21 19 18 16 15 14 14 15
57 54 52 50 50 52 49 46 44 44 42 41 41 39 37 35 32 29 26 23 21 19 18 16 15 15 15
55 58 55 55 48 52 51 49 46 42 42 41 42 40 39 37 35 32 28 25 23 21 19 18 17 16 16
58 57 59 57 53 52 51 49 44 45 46 41 42 40 40 39 38 34 31 28 25 23 21 20 18 17 17
62 56 60 58 55 49 52 50 46 45 47 43 41 40 40 39 39 37 33 31 28 25 23 21 20 18 18
62 60 62 59 57 53 53 52 48 44 47 45 42 41 38 39 40 38 35 33 31 28 25 23 21 20 19
61 62 63 62 58 52 53 54 50 47 45 45 43 43 39 35 39 39 37 35 33 30 28 25 23 21 20
62 62 66 64 59 56 52 53 51 48 47 46 42 43 42 37 35 37 37 36 34 32 29 27 25 23 21
65 65 68 64 60 56 52 53 50 49 47 46 41 41 42 39 37 34 34 35 35 33 31 29 26 24 22
69 63 69 65 61 58 52 54 51 49 46 47 43 40 39 40 38 36 35 32 33 33 32 30 28 26 24
72 64 71 69 64 59 55 53 51 49 45 45 42 41 39 39 37 37 36 33 32 31 31 29 28 27 25
72 65 71 69 65 61 57 55 53 51 46 45 43 40 38 37 37 36 35 33 32 31 30 28 27 27 26
72 67 72 70 66 62 57 55 54 51 48 47 45 41 39 37 36 38 35 33 32 31 30 28 27 26 26
Wind_Direction
213 210 210 210 210 211 212 213 214 214 215 215 216 217 220 222 226 231 239 249 260 275 291 308 319 329 337
213 212 211 213 212 212 212 214 215 215 215 216 217 219 221 224 227 232 239 248 257 268 283 299 311 322 330
217 213 213 212 211 213 214 215 216 215 216 217 218 220 223 225 228 233 239 246 254 263 276 289 303 314 324
215 213 213 213 212 213 215 216 216 216 217 219 219 221 223 226 229 232 238 244 251 259 270 282 294 306 317
215 212 212 211 214 214 215 216 217 218 218 219 220 221 223 226 229 232 236 243 248 256 265 275 288 298 310
213 214 214 213 214 214 215 215 217 218 218 221 220 222 223 226 229 231 236 241 247 253 260 269 280 291 302
216 216 214 213 215 214 215 217 218 218 218 221 221 223 224 226 229 230 233 239 245 251 256 264 274 284 296
219 219 216 216 217 217 217 217 219 219 216 220 221 224 224 226 228 230 233 238 243 248 254 261 268 277 288
221 222 215 214 213 214 214 213 216 217 218 221 222 223 225 227 228 230 232 236 241 246 251 258 264 272 282
220 219 212 212 213 215 215 214 216 219 219 220 221 222 226 227 228 229 231 235 239 243 248 254 261 266 275
218 214 211 211 212 214 214 214 216 219 219 219 220 222 224 227 228 228 230 233 237 240 245 250 256 263 272
214 213 210 209 212 213 215 215 218 219 218 218 222 221 222 225 227 227 229 232 235 238 242 247 252 259 267
213 212 210 210 210 211 215 213 215 215 216 217 221 221 221 224 225 227 227 232 234 236 240 244 248 254 262
212 214 208 207 208 209 211 209 211 213 215 215 219 220 221 223 224 225 228 231 232 235 239 243 247 251 258
209 212 205 205 206 208 206 208 211 211 213 213 217 219 221 222 223 225 227 231 233 235 237 241 245 249 254
206 208 204 204 204 205 208 211 210 209 211 211 213 216 219 222 223 223 226 228 231 233 237 240 244 247 251
205 207 202 202 203 204 207 207 208 209 211 211 212 215 218 221 223 224 225 227 229 232 236 239 244 247 248